Fort Lewis, WA
on Saturday, January 26, 2013

Saturday
Previous Day Next Day
Daily Summary
 ActualAverage (KOLM)Record (KOLM)
Temperature
Mean Temperature °F 40°F  
Max Temperature 46°F 47°F 58°F (2003)
Min Temperature 30°F 34°F 0°F (1957)
Degree Days
Heating Degree Days 27 25  
Month to date heating degree days 660  
Since 1 July heating degree days 2930  
Cooling Degree Days 0 0  
Month to date cooling degree days 0  
Year to date cooling degree days 0  
Moisture
Dew Point 37°F   
Average Humidity 89    
Maximum Humidity 100    
Minimum Humidity 71    
Precipitation
Precipitation 0.02 in 0.24 in 2.08 in (1970)
Month to date precipitation 6.68  
Year to date precipitation 6.68  
Wind
Wind Speed 4 mph   
Max Wind Speed 16 mph   
Max Gust Speed 20 mph   
Visibility 10 miles   
Events Rain   

Key: T is trace of precipitation, MM is missing value
Source: NWS Daily Summary
Time(PST)TemperatureDew PointHumidity Pressure Visibility Wind DirectionWind SpeedGust SpeedPrecipitationEvents Conditions
12:03 AM 32.0°F 32.0°F 100% 29.92 in 10.0 miles West 2.3 mph - N/A   Scattered Clouds
12:58 AM 30.4°F 30.2°F 99% 29.93 in 3.0 miles West 2.3 mph - N/A   Clear
1:58 AM 32.4°F 32.2°F 99% 29.92 in 10.0 miles West 3.5 mph - N/A   Clear
2:58 AM 34.2°F 34.0°F 99% 29.92 in 10.0 miles West 2.3 mph - N/A   Partly Cloudy
3:00 AM 33.8°F 33.8°F 100% 29.90 in 10.0 miles West 3.5 mph - N/A Rain Light Rain
3:10 AM 33.8°F 33.8°F 100% 29.90 in 10.0 miles West 3.5 mph - N/A Rain Light Rain
3:45 AM 35.6°F 35.6°F 100% 29.88 in 10.0 miles West 1.2 mph - N/A Rain Light Rain
3:58 AM 35.4°F 35.2°F 99% 29.90 in 10.0 miles West 2.3 mph - 0.02 in Rain Light Rain
4:35 AM 37.4°F 37.4°F 100% 29.88 in 10.0 miles West 4.6 mph - N/A   Mostly Cloudy
4:58 AM 39.0°F 38.7°F 99% 29.90 in 10.0 miles West 4.6 mph - 0.00 in   Scattered Clouds
5:58 AM 37.8°F 37.0°F 97% 29.90 in 10.0 miles West 2.3 mph - N/A   Mostly Cloudy
6:53 AM 39.2°F 39.2°F 100% 29.88 in 10.0 miles Calm Calm - N/A   Overcast
6:58 AM 39.2°F 38.5°F 97% 29.90 in 10.0 miles Calm Calm - N/A   Overcast
7:13 AM 39.2°F 39.2°F 100% 29.89 in 10.0 miles WNW 1.2 mph - N/A   Overcast
7:23 AM 39.2°F 39.2°F 100% 29.89 in 10.0 miles West 2.3 mph - N/A   Overcast
7:58 AM 41.2°F 38.5°F 90% 29.92 in 10.0 miles West 1.2 mph - N/A   Overcast
8:58 AM 42.1°F 38.5°F 87% 29.94 in 10.0 miles West 2.3 mph - N/A   Mostly Cloudy
9:08 AM 42.8°F 39.2°F 87% 29.92 in 10.0 miles NNW 1.2 mph - N/A   Overcast
9:18 AM 42.8°F 39.2°F 87% 29.93 in 10.0 miles Calm Calm - N/A   Mostly Cloudy
9:23 AM 42.8°F 39.2°F 87% 29.93 in 10.0 miles North 1.2 mph - N/A   Mostly Cloudy
9:58 AM 43.2°F 38.8°F 85% 29.96 in 10.0 miles NNW 1.2 mph - N/A   Mostly Cloudy
10:03 AM 42.8°F 39.2°F 87% 29.94 in 10.0 miles NW 1.2 mph - N/A   Scattered Clouds
10:43 AM 44.6°F 39.2°F 81% 29.94 in 10.0 miles South 10.4 mph - N/A   Scattered Clouds
10:58 AM 45.0°F 38.5°F 78% 29.96 in 10.0 miles South 10.4 mph - N/A   Mostly Cloudy
11:38 AM 46.4°F 37.4°F 71% 29.94 in 10.0 miles SSE 12.7 mph 19.6 mph N/A   Overcast
11:43 AM 46.4°F 39.2°F 76% 29.94 in 10.0 miles SSE 11.5 mph 19.6 mph N/A   Overcast
11:48 AM 46.4°F 39.2°F 76% 29.94 in 10.0 miles SSE 12.7 mph - N/A   Mostly Cloudy
11:58 AM 46.2°F 38.5°F 74% 29.95 in 10.0 miles SSE 16.1 mph - N/A   Mostly Cloudy
12:41 PM 44.6°F 37.4°F 76% 29.94 in 10.0 miles South 8.1 mph 17.3 mph N/A Rain Light Rain
12:51 PM 44.6°F 39.2°F 81% 29.93 in 10.0 miles South 11.5 mph - N/A   Overcast
12:58 PM 45.5°F 39.2°F 79% 29.95 in 10.0 miles South 15.0 mph - 0.00 in   Mostly Cloudy
1:58 PM 45.0°F 37.2°F 74% 29.95 in 10.0 miles South 11.5 mph - N/A   Overcast
2:28 PM 44.6°F 37.4°F 76% 29.93 in 10.0 miles South 9.2 mph - N/A   Mostly Cloudy
2:58 PM 45.0°F 37.8°F 76% 29.96 in 10.0 miles South 8.1 mph - N/A   Overcast
3:03 PM 44.6°F 37.4°F 76% 29.94 in 10.0 miles South 9.2 mph - N/A   Mostly Cloudy
3:08 PM 44.6°F 37.4°F 76% 29.94 in 10.0 miles South 8.1 mph - N/A   Scattered Clouds
3:13 PM 44.6°F 37.4°F 76% 29.94 in 10.0 miles South 9.2 mph - N/A   Mostly Cloudy
3:18 PM 44.6°F 37.4°F 76% 29.94 in 10.0 miles South 10.4 mph - N/A   Scattered Clouds
3:58 PM 43.3°F 37.6°F 80% 29.97 in 10.0 miles South 6.9 mph - N/A   Partly Cloudy
4:58 PM 40.5°F 37.9°F 91% 29.98 in 10.0 miles South 5.8 mph - N/A   Partly Cloudy
5:58 PM 37.8°F 37.0°F 97% 29.99 in 10.0 miles South 4.6 mph - N/A   Overcast
6:58 PM 38.8°F 38.1°F 97% 30.00 in 10.0 miles South 6.9 mph - N/A   Mostly Cloudy
7:58 PM 37.9°F 37.0°F 97% 30.02 in 10.0 miles South 4.6 mph - N/A   Mostly Cloudy
8:33 PM 37.4°F 37.4°F 100% 30.00 in 10.0 miles South 4.6 mph - N/A   Overcast
8:38 PM 37.4°F 37.4°F 100% 30.00 in 10.0 miles South 4.6 mph - N/A   Mostly Cloudy
8:58 PM 37.4°F 37.0°F 99% 30.02 in 10.0 miles South 4.6 mph - N/A   Mostly Cloudy
9:18 PM 37.4°F 37.4°F 100% 30.01 in 10.0 miles South 3.5 mph - N/A   Mostly Cloudy
9:58 PM 38.8°F 38.1°F 97% 30.04 in 10.0 miles South 6.9 mph - N/A   Overcast
10:58 PM 39.7°F 38.3°F 95% 30.05 in 10.0 miles South 5.8 mph - N/A   Overcast
11:58 PM 38.7°F 37.8°F 97% 30.06 in 10.0 miles South 3.5 mph - N/A   Overcast
Moon Phase
Jan. 26 Jan. 26 Feb. 03 Feb. 10 Feb. 17
Sunrise:07:42 AM (PST) Moon Rise:05:08 PM (PST)1/26
Sunset:05:04 PM (PST) Moon Set:07:00 AM (PST)1/26

Copyright © 2014 The Weather Underground, Inc.